Millington, TN

4:31 PM CST on February 07, 2016 (GMT -0600)
Millington Municipal

Weather History for KNQA - February, 2014

Change the Weather History Date:

Sunday, February 9, 2014

  Actual Average Record
Temperature  
Mean Temperature 35 °F -  
Max Temperature 37 °F 51 °F 72 °F (1999)
Min Temperature 33 °F 34 °F 17 °F (2011)
Degree Days  
Heating Degree Days 30    
Moisture  
Dew Point 33 °F    
Average Humidity 92    
Maximum Humidity 100    
Minimum Humidity 87    
Precipitation  
Precipitation 0.00 in - - ()
Sea Level Pressure  
Sea Level Pressure 30.17 in    
Wind  
Wind Speed 2 mph (NNW)    
Max Wind Speed 9 mph    
Max Gust Speed -    
Visibility 6 miles    
Events      
Averages and records for this station are not official NWS values.
T = Trace of Precipitation, MM = Missing Value Source: NWS Daily Summary

Daily Weather History Graph

Daily Weather History Graph

Search for Another Location

Airport or City:

Trip Planner

Search our weather history database for the weather conditions in past years. The results will help you decide how hot, cold, wet, or windy it might be!

Date:

Astronomy

Feb. 09, 2014 Rise Set
Actual Time 6:51 AM CST 5:35 PM CST
Civil Twilight 6:25 AM CST 6:02 PM CST
Nautical Twilight 5:55 AM CST 6:32 PM CST
Astronomical Twilight 5:26 AM CST 7:01 PM CST
Moon 1:19 PM CST (2/9) 2:53 AM CST (2/9)
Length of Visible Light 11h 36m
Length of Day
10h 43m
Waxing Gibbous, 77% of the Moon is Illuminated
Feb 9
Waxing Gibbous
Feb 14
Full
Feb 22
Last Quarter
Mar 1
New
Mar 8
First Quarter

Hourly Weather History & Observations

Time (CST) Temp. Windchill Dew Point Humidity Pressure Visibility Wind Dir Wind Speed Gust Speed Precip Events Conditions
2:15 AM 35.6 °F - 33.8 °F 93% 30.15 in 2.5 mi Calm Calm - N/A   Partly Cloudy
2:35 AM 35.6 °F - 33.8 °F 93% 30.15 in 2.0 mi Calm Calm - N/A   Partly Cloudy
2:55 AM 35.6 °F - 33.8 °F 93% 30.16 in 1.8 mi Calm Calm - N/A   Unknown
3:15 AM 33.8 °F - 32.0 °F 93% 30.14 in 1.5 mi Calm Calm - N/A   Mostly Cloudy
3:35 AM 33.8 °F - 33.8 °F 100% 30.13 in 1.8 mi Calm Calm - N/A   Overcast
3:55 AM 35.6 °F - 33.8 °F 93% 30.14 in 1.8 mi Calm Calm - N/A   Mostly Cloudy
4:15 AM 37.4 °F - 33.8 °F 87% 30.15 in 1.5 mi Calm Calm - N/A   Mostly Cloudy
4:35 AM 35.6 °F - 33.8 °F 93% 30.15 in 1.2 mi Calm Calm - N/A   Mostly Cloudy
4:55 AM 35.6 °F 32.8 °F 33.8 °F 93% 30.16 in 1.0 mi WNW 3.5 mph - N/A   Mostly Cloudy
5:30 AM 33.8 °F 30.8 °F 33.8 °F 100% 30.17 in 1.2 mi WNW 3.5 mph - N/A   Overcast
5:55 AM 33.8 °F 29.6 °F 33.8 °F 100% 30.18 in 1.8 mi West 4.6 mph - N/A   Overcast
6:55 AM 35.6 °F - 33.8 °F 93% 30.17 in 4.0 mi Calm Calm - N/A   Overcast
7:55 AM 33.8 °F - 33.8 °F 100% 30.17 in 6.0 mi Calm Calm - N/A   Overcast
8:55 AM 35.6 °F 31.7 °F 33.8 °F 93% 30.19 in 8.0 mi NNW 4.6 mph - N/A   Overcast
9:55 AM 35.6 °F 30.7 °F 33.8 °F 93% 30.21 in 10.0 mi North 5.8 mph - N/A   Overcast
10:55 AM 35.6 °F - 32.0 °F 87% 30.21 in 10.0 mi Calm Calm - N/A   Overcast
11:55 AM 33.8 °F 30.8 °F 30.2 °F 87% 30.17 in 10.0 mi North 3.5 mph - N/A   Overcast
12:55 PM 35.6 °F 31.7 °F 33.8 °F 93% 30.18 in 10.0 mi NNW 4.6 mph - N/A   Overcast
1:50 PM 35.6 °F 29.2 °F 33.8 °F 93% 30.17 in 10.0 mi NNW 8.1 mph - N/A   Overcast
2:50 PM 35.6 °F 30.7 °F 32.0 °F 87% 30.18 in 10.0 mi North 5.8 mph - N/A   Overcast
3:55 PM 33.8 °F 26.4 °F 32.0 °F 93% 30.18 in 10.0 mi North 9.2 mph - N/A   Overcast
4:52 PM 33.8 °F 29.6 °F 30.2 °F 87% 30.17 in 10.0 mi NE 4.6 mph - N/A   Overcast
5:50 PM 33.8 °F 27.7 °F 30.2 °F 87% 30.17 in 10.0 mi North 6.9 mph - N/A   Overcast
6:50 PM 33.8 °F 28.6 °F 30.2 °F 87% 30.20 in 9.0 mi North 5.8 mph - N/A   Overcast